sat.trackr.live / text

‹ back to catalog

WNISAT-1

NORAD 39423 · 2013-066H

PAYLOAD ACTIVE UNKNOWN

§ Identity

Operator
Country
JPN
Launch date
2013-11-21
Launch site
DLS
Launch vehicle
Mass (kg)
RCS (m²)
0.17

Purposes: tech_demo

External: N2YO · Heavens-Above · Gunter

§ Orbital elements

Epoch: 2026-05-25T03:39:52.244064Z

Period
98.76 min
Inclination
97.7175°
Eccentricity
0.0161921
Mean motion
14.58027413 rev/d
Perigee alt
584.9 km
Apogee alt
814.2 km
Semi-major
7,077.7 km
B*
8.9963e-5
RAAN
295.9475°
Arg perigee
304.7485°
Mean anomaly
53.8559°
Rev number
66,337

§ Raw data

WNISAT-11 39423U 13066H   26145.15268801  .00000443  00000+0  89963-4 0  99952 39423  97.7175 295.9475 0161921 304.7485  53.8559 14.58027413663376

JSON: /api/v1/satellites/39423 · /tle

For live sub-satellite position, see the globe view (requires WebGL).

§ Visibility from observer

Set your observer location to see the next 7 days of passes ≥ 10°. The values pass through the URL so the page stays shareable.

No JS? Fill the form by hand. The geolocation button needs JavaScript.